STARLINK-33787, 63519

Orbit data source: Space-Track

STARLINK-33787, 63519 is a payload satellite owned by SpaceX/Seattle (US) in LEO that was launched on Mon, 07 Apr 2025 UTC via an FALCON 9 launch vehicle from the Air Force Western Test Range (AFWTR). Payload-class satellites include a variety of spacecraft equipped with specific instruments for various scientific and technological missions. These include communications satellites like Starlink; space stations such as the ISS; scientific satellites like the Hubble; Earth observation satellites from companies like Planet Labs, Umbra, and HawkEye 360; GPS; miniature CubeSats for education and research; and military/defense satellites.

Loading next visibility...
Identifier
63519, 2025-071AC
Orbit
LEO
Last TLE update
2 days ago
Origin
Manufacturer
SpaceX/Seattle
Mission
Operational spacecraft
Bus & Motor
STARLINK V2MO, Unknown motor
Mass
575 kg wet, ~530 kg dry
Launch date (UTC)
2025-04-07 (3 weeks ago)
Launch vehicle
FALCON 9
Launch site
Air Force Western Test Range (AFWTR)
Object type
Payload
Rocket body
Debris
Shape & HBR
Unknown
Radar Cross Section
Large (>1 m²)

Expand to show TLE details & history

TLE from 2 days ago
0 STARLINK-33787
1 63519U 25071AC  25118.76372126 -.00000430  00000-0  13626-5 0  9991
2 63519  53.1591 168.3746 0001333  87.7133 272.4039 15.74186655  4104
Epoch: 2025-04-28T18:19Z
Definitive object data (Epoch: 2025-04-28T18:19:45.516Z)
Latitude
-0.00008°
Longitude
36.46182°
Altitude
347.826 km
Speed
7.701 km/s
True Right ascension
11h 13m 29s
True Declination
0° 00' 00"
Sunlit
Object was in full shadow at TLE epoch
Visualization TLE readout
Latitude
-19.53675°
Longitude
-136.58236°
Altitude
352.686 km
Speed
7.697 km/s
Apparent Right ascension
02h 26m 55s
Apparent Declination
-40° 52' 59"
Sunlit
Object is in daylight
Visualization observer readout
Local Sidereal Time
18:22:42
Azimuth
111.24° ESE
Elevation
-45.982°
Doppler factor
1
Orbital elements
Apogee altitude
348.104 km
Perigee altitude
346.311 km
Semi-major axis
6,725.345 km
Eccentricity
0.0001333
Inclination
53.1591°
RAAN
168.3746°
Arg. of periapsis
87.7133°
True anomaly
272.38864°
Mean anomaly
272.4039°
Eccentric anomaly
272.39627°
Mean motion
3.93524 °/min
BSTAR
0.0000013626
Orbital period
91.48 mins
Loading maneuver chart data...
Loading SW <> Apogee altitude chart data...
Loading historical data...
Loading historical data...
Loading historical data...
Loading historical data...
Loading historical data...
Loading historical data...
Loading historical data...

STARLINK-33787 Visibility forecast

Observer location: undefined°, undefined°

Span
Click to sort rows by Start time (UTC) header in descending order
Start Az.
Max El. time (UTC)
Max El. Az.
Max El.
End time (UTC)
End Az.
5 mins2025-04-30 11:56:38.284Z324.763° NNW2025-04-30 11:59:38.284Z63.456° ENE30.079°2025-04-30 12:01:38.284Z105.492° ESE
4 mins2025-05-01 05:58:38.284Z271.249° WNW2025-05-01 06:00:38.284Z345.963° N27.434°2025-05-01 06:02:38.284Z31.563° NE
|